Regional Weather Roundup
Issued by NWS Burlington, VT

Home | Current Version | Previous Version | Text Only | Print | Product List | Glossary On
Versions: 1 2 3 4 5 6 7 8 9 10 11 12 13 14 15 16 17 18 19 20 21 22 23 24 25 26 27 28 29 30 31 32 33 34 35 36 37 38 39 40 41 42 43 44 45 46 47 48 49 50
000
ASUS41 KBTV 281430
RWRBTV
VERMONT REGIONAL WEATHER ROUNDUP
NATIONAL WEATHER SERVICE BURLINGTON VT
900 AM EST FRI NOV 28 2014

NOTE: "FAIR" INDICATES FEW OR NO CLOUDS BELOW 12,000 FEET WITH NO
SIGNIFICANT WEATHER AND/OR OBSTRUCTIONS TO VISIBILITY.

* THESE REPORTS ARE NOT UNDER NWS QUALITY CONTROL AND/OR DO NOT
  REPORT WEATHER SUCH AS PRECIPITATION AND FOG.

VTZ001>019-281500-
_____VERMONT_____


CITY           SKY/WX    TMP DP  RH WIND       PRES   REMARKS
BURLINGTON     PTSUNNY   26  15  63 W9        30.11R
MONTPELIER     LGT SNOW  21  17  84 NW7       30.08R FOG
MORRISVILLE    CLOUDY    24  17  74 VRB5      30.07R
ST. JOHNSBURY*   N/A     25  22  88 MISG      30.03R
LYNDONVILLE*   LGT SNOW  24  19  83 SW7       30.02S VSB 1
MIDDLEBURY*    LGT SNOW  25  25 100 CALM      30.10R
RUTLAND*       PTSUNNY   23  21  93 CALM      30.07
HIGHGATE*      FLURRIES  25  18  75 W5        30.10R
NEWPORT*       LGT SNOW  23  17  80 W5        30.04S
BENNINGTON     CLOUDY    26  21  81 W9        30.09R
GALLUP MILLS*    N/A     23 N/A N/A MISG        N/A
UNION VILLAGE*   N/A     25 N/A N/A MISG        N/A
MT. MANSFIELD*   N/A     10 N/A N/A NW16        N/A  WCI  -7

_____LAKE CHAMPLAIN_____


CITY           SKY/WX    TMP DP  RH WIND       PRES   REMARKS
BURTON ISLAND*   N/A     28  19  69 W21         N/A  WCI  15
COLCHESTER RF*   N/A     28  18  64 NW15        N/A  WCI  17
DIAMOND ISL*     N/A     28  18  64 NW9         N/A

$$

NYZ007-026>031-035-052-083-281500-
_____NORTHERN NEW YORK_____


CITY           SKY/WX    TMP DP  RH WIND       PRES   REMARKS
PLATTSBURGH    CLOUDY    25  16  68 W6        30.11R
SARANAC LAKE   PTSUNNY   17  12  80 W8        30.02R
MASSENA        LGT SNOW  22  16  78 W9        30.16R
OGDENSBURG*    SUNNY     25  18  74 NW6       30.16S
POTSDAM*       CLOUDY    21  19  93 W9        30.15S FOG
STARK FALLS*     N/A     18 N/A N/A W5          N/A
WATERTOWN      LGT SNOW  25  20  81 CALM      30.18R
FT DRUM        FLURRIES  21  19  91 W3        30.14S
ALBANY         MOSUNNY   28  17  63 NW15G21   30.15R WCI  16
GLENS FALLS    SUNNY     26  17  68 N5        30.12R

$$
NHZ002-005-011-281500-
_____NEW HAMPSHIRE_____


CITY           SKY/WX    TMP DP  RH WIND       PRES   REMARKS
LEBANON        CLOUDY    27  21  78 CALM      30.06R
KEENE          MOSUNNY   25  21  86 CALM      30.07R
MT WASHINGTON  FOG        1   1 100 NW36G41     N/A  VSB 1/16WCI -26
PLYMOUTH       PTSUNNY   28  24  85 W10G16    30.04S WCI  18
WHITEFIELD     CLOUDY    21  19  92 CALM      30.01S FOG

$$

_____REGIONAL QUEBEC LOCATIONS_____


CITY           SKY/WX    TMP DP  RH WIND       PRES   REMARKS
MONTREAL       FLURRIES  23  19  86 N6        30.10R
QUEBEC CITY    LGT SNOW  21  16  79 E7        30.06R
SHERBROOKE     LGT SNOW  23  21  93 W6        30.02R

_____REGIONAL ONTARIO LOCATIONS_____


CITY           SKY/WX    TMP DP  RH WIND       PRES   REMARKS
OTTAWA         LGT SNOW  19  14  79 NW12      30.14S FOG     WCI   7

______KEY______
VSB  - VISIBILITY IN MILES
WCI  - WIND CHILL INDEX
HX   - HEAT INDEX
$$



USA.gov is the U.S. government's official web portal to all federal, state and local government web resources and services.